Time,TemperatureF,DewpointF,PressureIn,WindDirection,WindDirectionDegrees,WindSpeedMPH,WindSpeedGustMPH,Humidity,HourlyPrecipIn,Conditions,Clouds,dailyrainin,SoftwareType,DateUTC
2013-02-01 00:04:00,23.1,18.0,29.48,SSW,207,5.0,25.0,79,0.00,,,0.00,weatherlink.com 1.10,2013-02-01 05:04:00,
2013-02-01 00:19:00,22.5,18.0,29.48,West,259,15.0,27.0,81,0.00,,,0.00,weatherlink.com 1.10,2013-02-01 05:19:00,
2013-02-01 00:34:00,21.8,17.0,29.49,SW,234,12.0,28.0,81,0.00,,,0.00,weatherlink.com 1.10,2013-02-01 05:34:00,
2013-02-01 00:49:00,21.6,17.0,29.49,WSW,257,12.0,30.0,81,0.00,,,0.00,weatherlink.com 1.10,2013-02-01 05:49:00,
2013-02-01 01:04:00,21.4,17.0,29.50,SW,230,22.0,26.0,82,0.00,,,0.00,weatherlink.com 1.10,2013-02-01 06:04:00,
2013-02-01 01:19:00,21.2,17.0,29.51,WSW,250,18.0,29.0,82,0.00,,,0.00,weatherlink.com 1.10,2013-02-01 06:19:00,
2013-02-01 01:34:00,21.2,17.0,29.51,WSW,254,14.0,26.0,82,0.00,,,0.00,weatherlink.com 1.10,2013-02-01 06:34:00,
2013-02-01 01:49:00,21.1,15.0,29.52,SW,227,15.0,29.0,78,0.00,,,0.00,weatherlink.com 1.10,2013-02-01 06:49:00,
2013-02-01 02:04:00,19.4,14.0,29.53,West,267,27.0,38.0,79,0.00,,,0.00,weatherlink.com 1.10,2013-02-01 07:04:00,
2013-02-01 02:19:00,19.5,13.0,29.53,WSW,244,25.0,37.0,77,0.00,,,0.00,weatherlink.com 1.10,2013-02-01 07:19:00,
2013-02-01 02:34:00,19.4,13.0,29.54,West,276,19.0,40.0,76,0.00,,,0.00,weatherlink.com 1.10,2013-02-01 07:34:00,
2013-02-01 02:49:00,19.4,12.0,29.55,West,263,19.0,41.0,74,0.00,,,0.00,weatherlink.com 1.10,2013-02-01 07:49:00,
2013-02-01 03:04:00,19.2,12.0,29.55,SW,236,16.0,39.0,74,0.00,,,0.00,weatherlink.com 1.10,2013-02-01 08:04:00,
2013-02-01 03:19:00,19.0,12.0,29.55,WNW,286,20.0,33.0,74,0.00,,,0.00,weatherlink.com 1.10,2013-02-01 08:19:00,
2013-02-01 03:35:00,18.9,12.0,29.56,West,269,13.0,24.0,75,0.00,,,0.00,weatherlink.com 1.10,2013-02-01 08:35:00,
2013-02-01 03:50:00,18.9,11.0,29.56,West,259,13.0,35.0,72,0.00,,,0.00,weatherlink.com 1.10,2013-02-01 08:50:00,
2013-02-01 04:05:00,19.1,11.0,29.57,West,270,15.0,35.0,71,0.00,,,0.00,weatherlink.com 1.10,2013-02-01 09:05:00,
2013-02-01 04:20:00,18.9,11.0,29.57,WSW,248,24.0,35.0,72,0.00,,,0.00,weatherlink.com 1.10,2013-02-01 09:20:00,
2013-02-01 04:35:00,18.9,10.0,29.58,West,263,14.0,31.0,69,0.00,,,0.00,weatherlink.com 1.10,2013-02-01 09:35:00,
2013-02-01 04:50:00,19.1,10.0,29.58,West,259,18.0,38.0,67,0.00,,,0.00,weatherlink.com 1.10,2013-02-01 09:50:00,
2013-02-01 05:05:00,18.8,11.0,29.58,WNW,283,28.0,38.0,72,0.00,,,0.00,weatherlink.com 1.10,2013-02-01 10:05:00,
2013-02-01 05:20:00,19.5,11.0,29.59,WSW,248,10.0,26.0,70,0.00,,,0.00,weatherlink.com 1.10,2013-02-01 10:20:00,
2013-02-01 05:35:00,19.5,10.0,29.59,WSW,255,17.0,28.0,67,0.00,,,0.00,weatherlink.com 1.10,2013-02-01 10:35:00,
2013-02-01 05:50:00,19.6,8.0,29.59,WSW,250,24.0,28.0,62,0.00,,,0.00,weatherlink.com 1.10,2013-02-01 10:50:00,
2013-02-01 06:05:00,19.4,9.0,29.60,West,278,14.0,31.0,63,0.00,,,0.00,weatherlink.com 1.10,2013-02-01 11:05:00,
2013-02-01 06:20:00,19.2,9.0,29.60,WSW,257,11.0,32.0,65,0.00,,,0.00,weatherlink.com 1.10,2013-02-01 11:20:00,
2013-02-01 06:35:00,19.0,10.0,29.61,WSW,257,18.0,30.0,68,0.00,,,0.00,weatherlink.com 1.10,2013-02-01 11:35:00,
2013-02-01 06:50:00,18.9,11.0,29.62,WSW,246,15.0,31.0,70,0.00,,,0.00,weatherlink.com 1.10,2013-02-01 11:50:00,
2013-02-01 07:05:00,18.7,11.0,29.63,WSW,253,26.0,30.0,72,0.00,,,0.00,weatherlink.com 1.10,2013-02-01 12:05:00,
2013-02-01 07:20:00,18.6,12.0,29.64,West,265,15.0,25.0,74,0.00,,,0.00,weatherlink.com 1.10,2013-02-01 12:20:00,
2013-02-01 07:35:00,18.5,12.0,29.66,WNW,290,10.0,25.0,75,0.00,,,0.00,weatherlink.com 1.10,2013-02-01 12:35:00,
2013-02-01 07:50:00,18.8,12.0,29.67,West,274,16.0,24.0,74,0.00,,,0.00,weatherlink.com 1.10,2013-02-01 12:50:00,
2013-02-01 08:06:00,19.2,12.0,29.68,WSW,255,10.0,18.0,74,0.00,,,0.00,weatherlink.com 1.10,2013-02-01 13:06:00,
2013-02-01 08:20:00,18.5,11.0,29.69,West,262,30.0,33.0,72,0.00,,,0.00,weatherlink.com 1.10,2013-02-01 13:20:00,
2013-02-01 08:35:00,18.8,10.0,29.70,West,279,17.0,31.0,68,0.00,,,0.00,weatherlink.com 1.10,2013-02-01 13:35:00,
2013-02-01 08:50:00,18.8,9.0,29.70,NW,305,28.0,32.0,65,0.00,,,0.00,weatherlink.com 1.10,2013-02-01 13:50:00,
2013-02-01 09:05:00,18.4,7.0,29.71,NW,317,15.0,37.0,62,0.00,,,0.00,weatherlink.com 1.10,2013-02-01 14:05:00,
2013-02-01 09:21:00,18.6,7.0,29.72,WNW,284,34.0,40.0,60,0.00,,,0.00,weatherlink.com 1.10,2013-02-01 14:21:00,
2013-02-01 09:35:00,18.7,6.0,29.73,WSW,244,20.0,42.0,58,0.00,,,0.00,weatherlink.com 1.10,2013-02-01 14:35:00,
2013-02-01 09:51:00,18.8,6.0,29.75,West,273,19.0,35.0,58,0.00,,,0.00,weatherlink.com 1.10,2013-02-01 14:51:00,
2013-02-01 10:06:00,19.4,7.0,29.76,WSW,249,18.0,33.0,59,0.00,,,0.00,weatherlink.com 1.10,2013-02-01 15:06:00,
2013-02-01 10:21:00,19.4,7.0,29.77,West,278,26.0,28.0,59,0.00,,,0.00,weatherlink.com 1.10,2013-02-01 15:21:00,
2013-02-01 10:36:00,19.6,8.0,29.78,WNW,284,17.0,27.0,60,0.00,,,0.00,weatherlink.com 1.10,2013-02-01 15:36:00,
2013-02-01 10:51:00,19.6,8.0,29.78,West,265,14.0,25.0,62,0.00,,,0.00,weatherlink.com 1.10,2013-02-01 15:51:00,
2013-02-01 11:06:00,19.3,8.0,29.79,WSW,238,18.0,33.0,62,0.00,,,0.00,weatherlink.com 1.10,2013-02-01 16:06:00,
2013-02-01 11:21:00,19.6,7.0,29.79,WNW,300,29.0,29.0,59,0.00,,,0.00,weatherlink.com 1.10,2013-02-01 16:21:00,
2013-02-01 11:36:00,19.8,8.0,29.79,WNW,291,12.0,30.0,61,0.00,,,0.00,weatherlink.com 1.10,2013-02-01 16:36:00,
2013-02-01 11:51:00,20.9,8.0,29.79,NW,312,23.0,25.0,58,0.00,,,0.00,weatherlink.com 1.10,2013-02-01 16:51:00,
2013-02-01 12:06:00,19.9,6.0,29.78,NW,309,23.0,26.0,56,0.00,,,0.00,weatherlink.com 1.10,2013-02-01 17:06:00,
2013-02-01 12:21:00,21.8,7.0,29.77,SW,233,22.0,34.0,53,0.00,,,0.00,weatherlink.com 1.10,2013-02-01 17:21:00,
2013-02-01 12:36:00,20.1,7.0,29.78,WNW,292,17.0,27.0,58,0.00,,,0.00,weatherlink.com 1.10,2013-02-01 17:36:00,
2013-02-01 12:52:00,19.6,7.0,29.78,WNW,298,13.0,26.0,58,0.00,,,0.00,weatherlink.com 1.10,2013-02-01 17:52:00,
2013-02-01 13:06:00,19.8,7.0,29.78,WNW,288,16.0,29.0,57,0.00,,,0.00,weatherlink.com 1.10,2013-02-01 18:06:00,
2013-02-01 13:21:00,21.5,5.0,29.77,WNW,298,22.0,29.0,50,0.00,,,0.00,weatherlink.com 1.10,2013-02-01 18:21:00,
2013-02-01 13:36:00,21.7,6.0,29.78,West,272,13.0,28.0,51,0.00,,,0.00,weatherlink.com 1.10,2013-02-01 18:36:00,
2013-02-01 13:51:00,21.5,6.0,29.78,WNW,284,18.0,27.0,52,0.00,,,0.00,weatherlink.com 1.10,2013-02-01 18:51:00,
2013-02-01 14:06:00,20.8,6.0,29.78,WSW,250,17.0,28.0,53,0.00,,,0.00,weatherlink.com 1.10,2013-02-01 19:06:00,
2013-02-01 14:21:00,21.6,6.0,29.78,West,268,24.0,27.0,51,0.00,,,0.00,weatherlink.com 1.10,2013-02-01 19:21:00,
2013-02-01 14:36:00,22.0,6.0,29.79,NW,324,19.0,27.0,51,0.00,,,0.00,weatherlink.com 1.10,2013-02-01 19:36:00,
2013-02-01 14:51:00,20.9,6.0,29.79,NW,308,20.0,27.0,53,0.00,,,0.00,weatherlink.com 1.10,2013-02-01 19:51:00,
2013-02-01 15:06:00,20.3,6.0,29.79,WNW,294,11.0,28.0,53,0.00,,,0.00,weatherlink.com 1.10,2013-02-01 20:06:00,
2013-02-01 15:21:00,19.6,7.0,29.80,NNW,341,14.0,28.0,57,0.00,,,0.00,weatherlink.com 1.10,2013-02-01 20:21:00,
2013-02-01 15:36:00,19.2,6.0,29.82,WNW,300,5.0,26.0,57,0.00,,,0.00,weatherlink.com 1.10,2013-02-01 20:36:00,
2013-02-01 15:51:00,18.9,6.0,29.82,WNW,298,18.0,30.0,57,0.00,,,0.00,weatherlink.com 1.10,2013-02-01 20:51:00,
2013-02-01 16:06:00,19.5,6.0,29.83,WNW,284,15.0,27.0,57,0.00,,,0.00,weatherlink.com 1.10,2013-02-01 21:06:00,
2013-02-01 16:21:00,18.6,6.0,29.84,NW,323,12.0,31.0,59,0.00,,,0.00,weatherlink.com 1.10,2013-02-01 21:21:00,
2013-02-01 16:36:00,17.6,5.0,29.86,NW,304,7.0,30.0,59,0.00,,,0.00,weatherlink.com 1.10,2013-02-01 21:36:00,
2013-02-01 16:51:00,16.8,5.0,29.87,West,262,13.0,29.0,61,0.00,,,0.00,weatherlink.com 1.10,2013-02-01 21:51:00,
2013-02-01 17:07:00,16.4,5.0,29.89,NNE,26,16.0,31.0,62,0.00,,,0.00,weatherlink.com 1.10,2013-02-01 22:07:00,
2013-02-01 17:22:00,15.9,5.0,29.90,NW,322,9.0,31.0,61,0.00,,,0.00,weatherlink.com 1.10,2013-02-01 22:22:00,
2013-02-01 17:37:00,15.6,4.0,29.91,NW,306,22.0,31.0,59,0.00,,,0.00,weatherlink.com 1.10,2013-02-01 22:37:00,
2013-02-01 17:52:00,15.0,4.0,29.93,NW,312,15.0,30.0,62,0.00,,,0.00,weatherlink.com 1.10,2013-02-01 22:52:00,
2013-02-01 18:07:00,14.7,4.0,29.94,WNW,284,12.0,28.0,62,0.00,,,0.00,weatherlink.com 1.10,2013-02-01 23:07:00,
2013-02-01 18:22:00,14.4,4.0,29.95,WNW,296,13.0,26.0,63,0.00,,,0.00,weatherlink.com 1.10,2013-02-01 23:22:00,
2013-02-01 18:37:00,14.1,4.0,29.96,West,263,11.0,31.0,63,0.00,,,0.00,weatherlink.com 1.10,2013-02-01 23:37:00,
2013-02-01 18:53:00,13.9,4.0,29.96,WNW,286,23.0,29.0,64,0.00,,,0.00,weatherlink.com 1.10,2013-02-01 23:53:00,
2013-02-01 19:07:00,14.7,4.0,29.97,NNW,345,13.0,23.0,62,0.00,,,0.00,weatherlink.com 1.10,2013-02-02 00:07:00,
2013-02-01 19:22:00,14.5,4.0,29.98,WNW,303,12.0,20.0,63,0.00,,,0.00,weatherlink.com 1.10,2013-02-02 00:22:00,
2013-02-01 19:37:00,14.4,4.0,29.99,NNE,15,10.0,20.0,63,0.00,,,0.00,weatherlink.com 1.10,2013-02-02 00:37:00,
2013-02-01 19:52:00,14.2,4.0,30.00,WSW,244,8.0,19.0,63,0.00,,,0.00,weatherlink.com 1.10,2013-02-02 00:52:00,
2013-02-01 20:07:00,14.1,4.0,30.01,NW,306,15.0,20.0,63,0.00,,,0.00,weatherlink.com 1.10,2013-02-02 01:07:00,
2013-02-01 20:23:00,13.9,3.0,30.01,NNW,342,16.0,19.0,62,0.00,,,0.00,weatherlink.com 1.10,2013-02-02 01:23:00,
2013-02-01 20:38:00,13.6,3.0,30.02,North,350,11.0,19.0,63,0.00,,,0.00,weatherlink.com 1.10,2013-02-02 01:38:00,
2013-02-01 20:53:00,13.5,3.0,30.02,NW,310,10.0,21.0,62,0.00,,,0.00,weatherlink.com 1.10,2013-02-02 01:53:00,
2013-02-01 21:08:00,13.4,3.0,30.03,North,355,9.0,19.0,62,0.00,,,0.00,weatherlink.com 1.10,2013-02-02 02:08:00,
2013-02-01 21:22:00,13.2,2.0,30.04,NW,311,13.0,19.0,62,0.00,,,0.00,weatherlink.com 1.10,2013-02-02 02:22:00,
2013-02-01 21:38:00,12.9,2.0,30.04,NNW,329,19.0,19.0,63,0.00,,,0.00,weatherlink.com 1.10,2013-02-02 02:38:00,
2013-02-01 21:53:00,12.6,2.0,30.05,NW,317,8.0,24.0,63,0.00,,,0.00,weatherlink.com 1.10,2013-02-02 02:53:00,
2013-02-01 22:08:00,11.4,2.0,30.05,WNW,296,18.0,22.0,65,0.00,,,0.00,weatherlink.com 1.10,2013-02-02 03:08:00,
2013-02-01 22:23:00,11.3,2.0,30.05,WNW,292,15.0,20.0,65,0.00,,,0.00,weatherlink.com 1.10,2013-02-02 03:23:00,
2013-02-01 22:38:00,11.1,2.0,30.06,WNW,285,8.0,16.0,66,0.00,,,0.00,weatherlink.com 1.10,2013-02-02 03:38:00,
2013-02-01 22:53:00,11.0,2.0,30.06,WNW,296,10.0,18.0,67,0.00,,,0.00,weatherlink.com 1.10,2013-02-02 03:53:00,
2013-02-01 23:09:00,11.0,2.0,30.07,WNW,294,11.0,16.0,67,0.00,,,0.00,weatherlink.com 1.10,2013-02-02 04:09:00,
2013-02-01 23:23:00,10.8,2.0,30.07,WNW,288,8.0,15.0,68,0.00,,,0.00,weatherlink.com 1.10,2013-02-02 04:23:00,
2013-02-01 23:39:00,10.9,2.0,30.08,WNW,286,15.0,18.0,68,0.00,,,0.00,weatherlink.com 1.10,2013-02-02 04:39:00,
2013-02-01 23:53:00,11.0,2.0,30.07,West,275,16.0,23.0,68,0.00,,,0.00,weatherlink.com 1.10,2013-02-02 04:53:00,